Regional Weather Roundup
Issued by NWS

Home | Current Version | Previous Version | Graphics & Text | Print | Product List | Glossary On
Versions: 1 2 3 4 5 6 7 8 9 10 11 12 13 14 15 16 17 18 19 20 21 22 23 24 25 26 27 28 29 30 31 32 33 34 35 36 37 38 39 40 41 42 43 44 45 46 47 48 49 50
000
ASUS43 KMPX 061801
RWRMN
WEATHER ROUNDUP FOR MINNESOTA
NATIONAL WEATHER SERVICE TWIN CITIES/CHANHASSEN MN
100 PM CDT WED MAY 06 2015


NOTE: "FAIR" INDICATES FEW OR NO CLOUDS BELOW 12,000 FEET WITH NO
SIGNIFICANT WEATHER AND/OR OBSTRUCTIONS TO VISIBILITY. N/A MEANS
CURRENT SKY AND/OR WEATHER CONDITIONS ARE NOT AVAILABLE.

MNZ060>063-068>070-061900-
   Twin Cities Metro

CITY           SKY/WX    TMP DP  RH WIND       PRES   REMARKS
TWIN CITIES    CLOUDY    65  58  78 E16       29.99F
6HR MIN TEMP:  56; 6HR MAX TEMP:  65; 6HR PCP: TRACE;

ST PAUL        FAIR      67  60  78 SE10      30.00F
CRYSTAL        FAIR      68  58  70 E13       29.97F
LAKEVILLE      FAIR      66  61  82 E16       29.98F
EDEN PRAIRIE   FAIR      68  58  70 SE13      29.96F
6HR MIN TEMP:  56; 6HR MAX TEMP:  68;

SOUTH ST PAUL  FAIR      66  58  76 SE9       29.99F
LAKE ELMO      FAIR      66  59  77 E9        30.02F
$$
MNZ001>005-007-008-013>017-022>024-027-028-061900-
   Northwest Minnesota

CITY           SKY/WX    TMP DP  RH WIND       PRES   REMARKS
BEMIDJI        FAIR      63  55  73 SE13      29.94F
HALLOCK        LGT RAIN  64  61  88 S14       29.87F
ROSEAU         FAIR      72  55  56 S13       29.90F
WARROAD        FAIR      64  55  72 SE9       29.93F
THIEF RVR FALL PTSUNNY   64  57  77 S12       29.90F
CROOKSTON      FAIR      63  61  94 SE17      29.88F
FOSSTON        FAIR      64  54  68 SE9       29.91F
DETROIT LAKES  CLOUDY    61  55  82 SE14      29.91F
MOORHEAD       LGT RAIN  63  57  82 SE12      29.87F
PARK RAPIDS    CLOUDY    62  54  74 SE10      29.94F
MAHNOMEN       MOCLDY    61  55  81 SE18      29.91F
$$
MNZ006-009>011-018-025>026-061900-
   North Central Minnesota

CITY           SKY/WX    TMP DP  RH WIND       PRES   REMARKS
BAUDETTE       FAIR      59  52  77 SE16      29.96F
FLAG ISLAND    FAIR      57  48  72 SE9       29.95S
INTL FALLS     PTSUNNY   61  52  72 SE9       30.00F
6HR MIN TEMP:  47; 6HR MAX TEMP:  62; 6HR PCP:  0.12;

WASKISH        FAIR      68  55  64 CALM      29.94F
BIG FORK       FAIR      68  52  56 SE8       30.00F
LONGVILLE      FAIR      63  54  72 E6        29.98F
GRAND RAPIDS   FAIR      61  50  67 E10G17    30.01F
CRANE LAKE     PTSUNNY   66  50  55 S8        30.04F
ORR            PTSUNNY   63  48  59 SE12G20   30.02S
COOK           CLOUDY    57  52  82 SE9G16    30.06F
WALKER         MOCLDY    60  54  79 SE7       29.98S
$$
MNZ012-019>021-037-061900-
   Northeast Minnesota

CITY           SKY/WX    TMP DP  RH WIND       PRES   REMARKS
DULUTH         CLOUDY    55  47  74 E8        30.07F
6HR MIN TEMP:  45; 6HR MAX TEMP:  55; 6HR PCP:  0.15;

ELY            RAIN      55  50  82 S3        30.08R
HIBBING        CLOUDY    57  50  77 SE12      30.05F
EVELETH        CLOUDY    52  50  93 E7        30.08F
DULUTH HARBOR  CLOUDY    45  39  81 NE13      30.10F
TWO HARBORS    CLOUDY    55  46  71 E8        30.08F
SILVER BAY     CLOUDY    57  37  47 NE9       30.10F
GRAND MARAIS     N/A     51  32  48 NE7       30.15S
G MARAIS ARPRT PTSUNNY   61  34  36 SE10      30.15S
$$
MNZ029>031-032-039>041-046>048-054>057-064-061900-
   West Central Minnesota

CITY           SKY/WX    TMP DP  RH WIND       PRES   REMARKS
FERGUS FALLS   FAIR      63  61  94 SE16      29.88F
WHEATON        LGT RAIN  61  57  88 E17       29.86F
MORRIS         FAIR      63  59  88 SE17      29.86F FOG
ALEXANDRIA     CLOUDY    61  56  83 E15       29.92F
ELBOW LAKE     CLOUDY    63  58  84 SE18      29.88F
WADENA         CLOUDY    57  55  94 E13       29.93F FOG
GLENWOOD       PTSUNNY   63  57  82 E17G26    29.92F
APPLETON       FAIR      68  59  73 SE21G28   29.83F
BENSON         PTSUNNY   66  57  72 SE12G22   29.87F
ORTONVILLE     CLOUDY    63  61  94 SE16      29.83F FOG
MADISON        PTSUNNY   66  59  77 SE17G26   29.83F
WILLMAR        FAIR      72  59  64 SE22G30   29.89F
$$
MNZ033>034-036-042>043-049>051-058-059-061900-
   Central Minnesota

CITY           SKY/WX    TMP DP  RH WIND       PRES   REMARKS
ST CLOUD       FAIR      65  56  72 E9        29.96F
6HR MIN TEMP:  55; 6HR MAX TEMP:  65;

SAUK CENTRE    CLOUDY    61  56  84 E14       29.94F
PAYNESVILLE    FAIR      63  57  81 NE13G20   29.93F
AITKIN         FAIR      66  55  68 SE6       29.98F
PINE RIVER     CLOUDY    59  54  82 SE10      30.01F
BRAINERD       FAIR      61  53  75 VRB6      29.98F
STAPLES        CLOUDY    57  54  88 SE9       29.95F FOG
LONG PRAIRIE   CLOUDY    59  55  88 E14G21    29.95F FOG
LITTLE FALLS   CLOUDY    59  54  82 SE9       29.97F FOG
LITCHFIELD     FAIR      72  63  73 E18       29.93F
BUFFALO        FAIR      69  57  65 E17       29.96F
MAPLE LAKE     FAIR      68  61  76 E8G17     29.96F
$$
MNZ037-044-045-052-053-061900-
   East Central Minnesota

CITY           SKY/WX    TMP DP  RH WIND       PRES   REMARKS
PRINCETON      FAIR      64  57  77 E12       29.99F
MORA           CLOUDY    61  52  72 E13       30.03F
CAMBRIDGE      FAIR      64  54  68 E8        29.99F
RUSH CITY      FAIR      65  57  75 SE7       30.02F
MOOSE LAKE     FAIR      68  52  56 E5        30.00F
HINCKLEY       MOCLDY    63  55  77 E9        30.03S
CLOQUET        FAIR      57  46  67 E12       30.06F
MCGREGOR       FAIR      66  54  63 SE12      30.01F
$$
MNZ071>073-080-081-089-090-097-098-061900-
   Southwest Minnesota

CITY           SKY/WX    TMP DP  RH WIND       PRES   REMARKS
MONTEVIDEO     FAIR      68  61  77 S24       29.86F
GRANITE FALLS  FAIR      69  58  69 E16G26    29.87F
CANBY          PTSUNNY   66  59  78 SE21      29.84F
MARSHALL       FAIR      72  57  60 SE21G29   29.82F
REDWOOD FALLS  FAIR      74  58  57 SE20G29   29.86F
OLIVIA         FAIR      70  55  60 SE17G23   29.87F
PIPESTONE      PTSUNNY   66  61  82 SE17G25   29.81F
WINDOM         FAIR      73  59  60 SE21G28   29.86F
WORTHINGTON    CLOUDY    64  59  82 S20G26    29.86R
JACKSON        FAIR      72  59  64 SE20G25   29.88S
TRACY          FAIR      73  60  64 SE20G26   29.84F
SLAYTON        RAIN      68  62  80 SE22G29   29.83F
$$
MNZ065>067-074>077-082>085-091>093-061900-
   South Central Minnesota

CITY           SKY/WX    TMP DP  RH WIND       PRES   REMARKS
MANKATO        FAIR      72  59  64 SE18G26   29.93F
NEW ULM        FAIR      73  57  56 SE15G21   29.89F
ST JAMES       FAIR      75  57  53 SE20G29   29.89F
FAIRMONT       FAIR      73  37  27 SE25G31   29.88F
GLENCOE        FAIR      74  62  66 E18G24    29.92F
FARIBAULT      FAIR      70  59  68 E13G20    29.97F
OWATONNA       FAIR      70  61  73 SE14G22   29.97F
WASECA         FAIR      72  61  68 E20       29.96F
ALBERT LEA     FAIR      70  63  78 SE18G24   29.95F HAZE
$$
MNZ078>079-086>088-094>096-061900-
   Southeast Minnesota

CITY           SKY/WX    TMP DP  RH WIND       PRES   REMARKS
ROCHESTER      FAIR      67  60  78 SE15      30.01F
6HR MIN TEMP:  54; 6HR MAX TEMP:  67;

RED WING       FAIR      66  59  77 SE12      30.01F
STANTON        FAIR      69  59  70 SE8       29.98F
DODGE CENTER   FAIR      70  61  73 SE18      29.99F
WINONA         FAIR      66  59  77 SE9       30.05F
AUSTIN         FAIR      68  63  83 SE15      29.98F HAZE
PRESTON        FAIR      68  60  74 SE15      30.03F
$$
ABBREVIATIONS USED IN REMARKS
   TC - TEMPERATURES IN CELSIUS
  WCI - WIND CHILL INDEX
   HX - HEAT INDEX
  VSB - VISIBILITY
$$



USA.gov is the U.S. government's official web portal to all federal, state and local government web resources and services.